This is the latest recevied weather packets stored in our database for station/object KI6PPU. If no packets are shown the sender has not sent any weather packets the latest 10 day(s).
| Time | Temp. | Humidity | Pressure | Rain* | Wind** | Luminosity | Snow |
|---|---|---|---|---|---|---|---|
| 1778127543 | 14.44° C | 92% | 1021 hPa | 0 mm | - | 0 W/m² | - |
| 1778127241 | 14.44° C | 92% | 1020.9 hPa | 0 mm | - | 0 W/m² | - |
| 1778126938 | 14.44° C | 92% | 1020.8 hPa | 0 mm | - | 0 W/m² | - |
| 1778126633 | 14.44° C | 92% | 1020.9 hPa | 0 mm | - | 0 W/m² | - |
| 1778126329 | 14.44° C | 91% | 1020.9 hPa | 0 mm | - | 0 W/m² | - |
| 1778126025 | 15° C | 91% | 1020.9 hPa | 0 mm | - | 0 W/m² | - |
| 1778125723 | 15° C | 90% | 1020.8 hPa | 0 mm | - | 0 W/m² | - |
| 1778125420 | 15° C | 90% | 1020.7 hPa | 0 mm | - | 0 W/m² | - |
| 1778125118 | 15.56° C | 89% | 1020.9 hPa | 0 mm | - | 0 W/m² | - |
| 1778124816 | 15.56° C | 89% | 1020.7 hPa | 0 mm | - | 0 W/m² | - |
| 1778124512 | 15.56° C | 88% | 1020.6 hPa | 0 mm | - | 0 W/m² | - |
| 1778124208 | 16.11° C | 87% | 1020.6 hPa | 0 mm | - | 0 W/m² | - |
| 1778123905 | 16.11° C | 87% | 1020.4 hPa | 0 mm | - | 0 W/m² | - |
| 1778123602 | 16.11° C | 86% | 1020.6 hPa | 0 mm | - | 0 W/m² | - |
| 1778123298 | 16.11° C | 86% | 1020.4 hPa | 0 mm | - | 0 W/m² | - |
| 1778122996 | 16.67° C | 84% | 1020.5 hPa | 0 mm | - | 0 W/m² | - |
| 1778122693 | 16.67° C | 84% | 1020.5 hPa | 0 mm | - | 0 W/m² | - |
| 1778122390 | 17.22° C | 82% | 1020.3 hPa | 0 mm | - | 2 W/m² | - |
| 1778122088 | 17.78° C | 82% | 1020.2 hPa | 0 mm | - | 6 W/m² | - |
| 1778121785 | 17.78° C | 82% | 1020.6 hPa | 0 mm | - | 9 W/m² | - |
| 1778121481 | 17.78° C | 81% | 1020.3 hPa | 0 mm | - | 11 W/m² | - |
| 1778121177 | 18.33° C | 81% | 1020.2 hPa | 0 mm | - | 13 W/m² | - |
| 1778120875 | 18.33° C | 79% | 1020.3 hPa | 0 mm | - | 17 W/m² | - |
| 1778120571 | 18.89° C | 78% | 1020.2 hPa | 0 mm | - | 20 W/m² | - |
| 1778120267 | 19.44° C | 76% | 1020.2 hPa | 0 mm | - | 21 W/m² | - |
* Rain latest hour (hover to see other rain measurements)
** Current wind speed in m/s (hover to see current wind gust speed)